owner,sensor,date,latitude,longitude,vertical_datum,mass_concentration_of_oxygen_in_sea_water,qcFlag 
DISL,ioos:station:DISL:MHPA:1,2019-07-01T00:00:00Z,30.6671,-87.9365,0.958,6.38,11111222 
DISL,ioos:station:DISL:MHPA:1,2019-07-01T01:00:00Z,30.6671,-87.9365,0.92,6.33,11111222 
DISL,ioos:station:DISL:MHPA:1,2019-07-01T02:00:00Z,30.6671,-87.9365,0.89,6.41,11111222 
DISL,ioos:station:DISL:MHPA:1,2019-07-01T03:00:00Z,30.6671,-87.9365,0.891,6.5,11111222 
DISL,ioos:station:DISL:MHPA:1,2019-07-01T04:00:00Z,30.6671,-87.9365,0.932,5.99,11111222 
DISL,ioos:station:DISL:MHPA:1,2019-07-01T05:00:00Z,30.6671,-87.9365,1.0,5.4,11111222 
DISL,ioos:station:DISL:MHPA:1,2019-07-01T06:00:00Z,30.6671,-87.9365,1.109,5.11,11111222 
DISL,ioos:station:DISL:MHPA:1,2019-07-01T07:00:00Z,30.6671,-87.9365,1.22,4.37,11111222 
DISL,ioos:station:DISL:MHPA:1,2019-07-01T08:00:00Z,30.6671,-87.9365,1.301,4.55,11111222 
DISL,ioos:station:DISL:MHPA:1,2019-07-01T09:00:00Z,30.6671,-87.9365,1.341,4.2,11111222 
DISL,ioos:station:DISL:MHPA:1,2019-07-01T10:00:00Z,30.6671,-87.9365,1.38,4.68,11111222 
DISL,ioos:station:DISL:MHPA:1,2019-07-01T10:30:00Z,30.6671,-87.9365,1.393,5.09,11111222 
DISL,ioos:station:DISL:MHPA:1,2019-07-01T13:00:00Z,30.6671,-87.9365,1.538,3.35,11111222 
DISL,ioos:station:DISL:MHPA:1,2019-07-01T14:00:00Z,30.6671,-87.9365,1.588,2.38,11111222 
DISL,ioos:station:DISL:MHPA:1,2019-07-01T18:00:00Z,30.6671,-87.9365,1.489,4.03,11111222 
DISL,ioos:station:DISL:MHPA:1,2019-07-01T19:00:00Z,30.6671,-87.9365,1.379,3.71,11111222 
DISL,ioos:station:DISL:MHPA:1,2019-07-01T20:00:00Z,30.6671,-87.9365,1.331,3.29,11111222 
DISL,ioos:station:DISL:MHPA:1,2019-07-01T21:00:00Z,30.6671,-87.9365,1.174,5.6,11111222 
DISL,ioos:station:DISL:MHPA:1,2019-07-01T22:00:00Z,30.6671,-87.9365,1.106,6.85,11111222 
DISL,ioos:station:DISL:MHPA:1,2019-07-01T23:00:00Z,30.6671,-87.9365,1.048,6.82,11111222 
DISL,ioos:station:DISL:MHPA:1,2019-07-02T00:00:00Z,30.6671,-87.9365,0.984,5.81,11111222 
DISL,ioos:station:DISL:MHPA:1,2019-07-02T01:00:00Z,30.6671,-87.9365,0.929,6.69,11111222 
DISL,ioos:station:DISL:MHPA:1,2019-07-02T02:00:00Z,30.6671,-87.9365,0.872,6.69,11111222 
DISL,ioos:station:DISL:MHPA:1,2019-07-02T03:00:00Z,30.6671,-87.9365,0.826,6.34,11111222 
DISL,ioos:station:DISL:MHPA:1,2019-07-02T04:00:00Z,30.6671,-87.9365,0.79,6.02,11111222 
DISL,ioos:station:DISL:MHPA:1,2019-07-02T05:00:00Z,30.6671,-87.9365,0.813,5.97,11111222 
DISL,ioos:station:DISL:MHPA:1,2019-07-02T06:00:00Z,30.6671,-87.9365,0.84,5.84,11111222 
DISL,ioos:station:DISL:MHPA:1,2019-07-02T07:00:00Z,30.6671,-87.9365,0.889,5.45,11111222 
DISL,ioos:station:DISL:MHPA:1,2019-07-02T08:00:00Z,30.6671,-87.9365,0.959,5.08,11111222 
DISL,ioos:station:DISL:MHPA:1,2019-07-02T09:00:00Z,30.6671,-87.9365,1.048,4.36,11111222 
DISL,ioos:station:DISL:MHPA:1,2019-07-02T10:00:00Z,30.6671,-87.9365,1.151,4.13,11111222 
DISL,ioos:station:DISL:MHPA:1,2019-07-02T11:00:00Z,30.6671,-87.9365,1.214,3.76,11111222 
DISL,ioos:station:DISL:MHPA:1,2019-07-02T12:00:00Z,30.6671,-87.9365,1.3,2.84,11111222 
DISL,ioos:station:DISL:MHPA:1,2019-07-02T13:00:00Z,30.6671,-87.9365,1.356,3.42,11111222 
DISL,ioos:station:DISL:MHPA:1,2019-07-02T14:00:00Z,30.6671,-87.9365,1.415,3.89,11111222 
DISL,ioos:station:DISL:MHPA:1,2019-07-02T15:00:00Z,30.6671,-87.9365,1.459,3.38,11111222 
DISL,ioos:station:DISL:MHPA:1,2019-07-02T16:00:00Z,30.6671,-87.9365,1.503,4.62,11111222 
DISL,ioos:station:DISL:MHPA:1,2019-07-02T17:00:00Z,30.6671,-87.9365,1.49,4.66,11111222 
DISL,ioos:station:DISL:MHPA:1,2019-07-02T18:00:00Z,30.6671,-87.9365,1.432,5.56,11111222 
DISL,ioos:station:DISL:MHPA:1,2019-07-02T19:00:00Z,30.6671,-87.9365,1.351,4.49,11111222 
DISL,ioos:station:DISL:MHPA:1,2019-07-02T20:00:00Z,30.6671,-87.9365,1.267,3.95,11111222 
DISL,ioos:station:DISL:MHPA:1,2019-07-02T21:00:00Z,30.6671,-87.9365,1.21,6.66,11111222 
DISL,ioos:station:DISL:MHPA:1,2019-07-02T22:00:00Z,30.6671,-87.9365,1.133,6.05,11111222 
DISL,ioos:station:DISL:MHPA:1,2019-07-02T23:00:00Z,30.6671,-87.9365,1.068,5.14,11111222 
DISL,ioos:station:DISL:MHPA:1,2019-07-03T00:00:00Z,30.6671,-87.9365,0.984,6.05,11111222 
DISL,ioos:station:DISL:MHPA:1,2019-07-03T01:00:00Z,30.6671,-87.9365,0.905,4.62,11111222 
DISL,ioos:station:DISL:MHPA:1,2019-07-03T02:00:00Z,30.6671,-87.9365,0.846,4.83,11111222 
DISL,ioos:station:DISL:MHPA:1,2019-07-03T03:00:00Z,30.6671,-87.9365,0.803,5.29,11111222 
DISL,ioos:station:DISL:MHPA:1,2019-07-03T04:00:00Z,30.6671,-87.9365,0.776,5.62,11111222 
DISL,ioos:station:DISL:MHPA:1,2019-07-03T05:00:00Z,30.6671,-87.9365,0.752,5.74,11111222 
DISL,ioos:station:DISL:MHPA:1,2019-07-03T06:00:00Z,30.6671,-87.9365,0.734,5.87,11111222 
DISL,ioos:station:DISL:MHPA:1,2019-07-03T07:00:00Z,30.6671,-87.9365,0.757,5.52,11111222 
DISL,ioos:station:DISL:MHPA:1,2019-07-03T08:00:00Z,30.6671,-87.9365,0.828,5.4,11111222 
DISL,ioos:station:DISL:MHPA:1,2019-07-03T09:00:00Z,30.6671,-87.9365,0.928,4.71,11111222 
DISL,ioos:station:DISL:MHPA:1,2019-07-03T10:00:00Z,30.6671,-87.9365,1.031,4.05,11111222 
DISL,ioos:station:DISL:MHPA:1,2019-07-03T11:00:00Z,30.6671,-87.9365,1.098,3.2,11111222 
DISL,ioos:station:DISL:MHPA:1,2019-07-03T12:00:00Z,30.6671,-87.9365,1.197,2.94,11111222 
DISL,ioos:station:DISL:MHPA:1,2019-07-03T13:00:00Z,30.6671,-87.9365,1.285,3.66,11111222 
DISL,ioos:station:DISL:MHPA:1,2019-07-03T14:00:00Z,30.6671,-87.9365,1.359,3.69,11111222 
DISL,ioos:station:DISL:MHPA:1,2019-07-03T15:00:00Z,30.6671,-87.9365,1.429,2.86,11111222 
DISL,ioos:station:DISL:MHPA:1,2019-07-03T16:00:00Z,30.6671,-87.9365,1.486,2.18,11111222 
DISL,ioos:station:DISL:MHPA:1,2019-07-03T17:00:00Z,30.6671,-87.9365,1.512,3.38,11111222 
DISL,ioos:station:DISL:MHPA:1,2019-07-03T18:00:00Z,30.6671,-87.9365,1.488,2.97,11111222 
DISL,ioos:station:DISL:MHPA:1,2019-07-03T19:00:00Z,30.6671,-87.9365,1.461,3.5,11111222 
DISL,ioos:station:DISL:MHPA:1,2019-07-03T20:00:00Z,30.6671,-87.9365,1.366,3.55,11111222 
DISL,ioos:station:DISL:MHPA:1,2019-07-03T21:00:00Z,30.6671,-87.9365,1.283,3.83,11111222 
DISL,ioos:station:DISL:MHPA:1,2019-07-03T22:00:00Z,30.6671,-87.9365,1.179,7.0,11111222 
DISL,ioos:station:DISL:MHPA:1,2019-07-03T23:00:00Z,30.6671,-87.9365,1.082,6.47,11111222 
DISL,ioos:station:DISL:MHPA:1,2019-07-04T00:00:00Z,30.6671,-87.9365,0.987,5.83,11111222 
DISL,ioos:station:DISL:MHPA:1,2019-07-04T01:00:00Z,30.6671,-87.9365,0.914,5.35,11111222 
DISL,ioos:station:DISL:MHPA:1,2019-07-04T02:00:00Z,30.6671,-87.9365,0.849,4.99,11111222 
DISL,ioos:station:DISL:MHPA:1,2019-07-04T03:00:00Z,30.6671,-87.9365,0.8,4.6,11111222 
DISL,ioos:station:DISL:MHPA:1,2019-07-04T04:00:00Z,30.6671,-87.9365,0.756,4.27,11111222 
DISL,ioos:station:DISL:MHPA:1,2019-07-04T05:00:00Z,30.6671,-87.9365,0.722,4.49,11111222 
DISL,ioos:station:DISL:MHPA:1,2019-07-04T06:00:00Z,30.6671,-87.9365,0.689,4.51,11111222 
DISL,ioos:station:DISL:MHPA:1,2019-07-04T07:00:00Z,30.6671,-87.9365,0.674,4.58,11111222 
DISL,ioos:station:DISL:MHPA:1,2019-07-04T08:00:00Z,30.6671,-87.9365,0.693,4.32,11111222 
DISL,ioos:station:DISL:MHPA:1,2019-07-04T09:00:00Z,30.6671,-87.9365,0.75,4.09,11111222 
DISL,ioos:station:DISL:MHPA:1,2019-07-04T10:00:00Z,30.6671,-87.9365,0.856,4.23,11111222 
DISL,ioos:station:DISL:MHPA:1,2019-07-04T11:00:00Z,30.6671,-87.9365,0.963,4.3,11111222 
DISL,ioos:station:DISL:MHPA:1,2019-07-04T12:00:00Z,30.6671,-87.9365,1.08,3.15,11111222 
DISL,ioos:station:DISL:MHPA:1,2019-07-04T13:00:00Z,30.6671,-87.9365,1.174,2.09,11111222 
DISL,ioos:station:DISL:MHPA:1,2019-07-04T14:00:00Z,30.6671,-87.9365,1.261,1.22,11111222 
DISL,ioos:station:DISL:MHPA:1,2019-07-04T15:00:00Z,30.6671,-87.9365,1.331,2.07,11111222 
DISL,ioos:station:DISL:MHPA:1,2019-07-04T16:00:00Z,30.6671,-87.9365,1.416,1.65,11111222 
DISL,ioos:station:DISL:MHPA:1,2019-07-04T17:00:00Z,30.6671,-87.9365,1.466,2.45,11111222 
DISL,ioos:station:DISL:MHPA:1,2019-07-04T18:00:00Z,30.6671,-87.9365,1.458,4.93,11111222 
DISL,ioos:station:DISL:MHPA:1,2019-07-04T19:00:00Z,30.6671,-87.9365,1.462,4.18,11111222 
DISL,ioos:station:DISL:MHPA:1,2019-07-04T20:00:00Z,30.6671,-87.9365,1.412,4.43,11111222 
DISL,ioos:station:DISL:MHPA:1,2019-07-04T21:00:00Z,30.6671,-87.9365,1.353,4.11,11111222 
DISL,ioos:station:DISL:MHPA:1,2019-07-04T22:00:00Z,30.6671,-87.9365,1.279,5.92,11111222 
DISL,ioos:station:DISL:MHPA:1,2019-07-04T23:00:00Z,30.6671,-87.9365,1.14,6.17,11111222 
DISL,ioos:station:DISL:MHPA:1,2019-07-05T00:00:00Z,30.6671,-87.9365,1.062,6.47,11111222 
DISL,ioos:station:DISL:MHPA:1,2019-07-05T01:00:00Z,30.6671,-87.9365,0.986,6.7,11111222 
DISL,ioos:station:DISL:MHPA:1,2019-07-05T02:00:00Z,30.6671,-87.9365,0.908,5.79,11111222 
DISL,ioos:station:DISL:MHPA:1,2019-07-05T03:00:00Z,30.6671,-87.9365,0.855,4.93,11111222 
DISL,ioos:station:DISL:MHPA:1,2019-07-05T04:00:00Z,30.6671,-87.9365,0.808,5.03,11111222 
DISL,ioos:station:DISL:MHPA:1,2019-07-05T05:00:00Z,30.6671,-87.9365,0.764,4.94,11111222 
DISL,ioos:station:DISL:MHPA:1,2019-07-05T06:00:00Z,30.6671,-87.9365,0.723,4.77,11111222 
DISL,ioos:station:DISL:MHPA:1,2019-07-05T07:00:00Z,30.6671,-87.9365,0.688,5.06,11111222 
DISL,ioos:station:DISL:MHPA:1,2019-07-05T08:00:00Z,30.6671,-87.9365,0.678,5.04,11111222 
DISL,ioos:station:DISL:MHPA:1,2019-07-05T09:00:00Z,30.6671,-87.9365,0.71,5.04,11111222 
DISL,ioos:station:DISL:MHPA:1,2019-07-05T10:00:00Z,30.6671,-87.9365,0.783,4.74,11111222 
DISL,ioos:station:DISL:MHPA:1,2019-07-05T11:00:00Z,30.6671,-87.9365,0.903,4.75,11111222 
DISL,ioos:station:DISL:MHPA:1,2019-07-05T12:00:00Z,30.6671,-87.9365,1.014,3.57,11111222 
DISL,ioos:station:DISL:MHPA:1,2019-07-05T13:00:00Z,30.6671,-87.9365,1.094,1.69,11111222 
DISL,ioos:station:DISL:MHPA:1,2019-07-05T14:00:00Z,30.6671,-87.9365,1.168,1.73,11111222 
DISL,ioos:station:DISL:MHPA:1,2019-07-05T15:00:00Z,30.6671,-87.9365,1.238,2.5,11111222 
DISL,ioos:station:DISL:MHPA:1,2019-07-05T16:00:00Z,30.6671,-87.9365,1.296,2.92,11111222 
DISL,ioos:station:DISL:MHPA:1,2019-07-05T17:00:00Z,30.6671,-87.9365,1.364,3.11,11111222 
DISL,ioos:station:DISL:MHPA:1,2019-07-05T18:00:00Z,30.6671,-87.9365,1.43,3.78,11111222 
DISL,ioos:station:DISL:MHPA:1,2019-07-05T19:00:00Z,30.6671,-87.9365,1.416,4.78,11111222 
DISL,ioos:station:DISL:MHPA:1,2019-07-05T20:00:00Z,30.6671,-87.9365,1.401,4.0,11111222 
DISL,ioos:station:DISL:MHPA:1,2019-07-05T21:00:00Z,30.6671,-87.9365,1.388,3.49,11111222 
DISL,ioos:station:DISL:MHPA:1,2019-07-05T22:00:00Z,30.6671,-87.9365,1.364,4.19,11111222 
DISL,ioos:station:DISL:MHPA:1,2019-07-05T23:00:00Z,30.6671,-87.9365,1.228,6.47,11111222 
DISL,ioos:station:DISL:MHPA:1,2019-07-06T00:00:00Z,30.6671,-87.9365,1.112,5.2,11111222 
DISL,ioos:station:DISL:MHPA:1,2019-07-06T01:00:00Z,30.6671,-87.9365,1.026,4.8,11111222 
DISL,ioos:station:DISL:MHPA:1,2019-07-06T02:00:00Z,30.6671,-87.9365,0.964,4.42,11111222 
DISL,ioos:station:DISL:MHPA:1,2019-07-06T03:00:00Z,30.6671,-87.9365,0.901,3.5,11111222 
DISL,ioos:station:DISL:MHPA:1,2019-07-06T04:00:00Z,30.6671,-87.9365,0.844,3.54,11111222 
DISL,ioos:station:DISL:MHPA:1,2019-07-06T05:00:00Z,30.6671,-87.9365,0.786,3.9,11111222 
DISL,ioos:station:DISL:MHPA:1,2019-07-06T06:00:00Z,30.6671,-87.9365,0.757,3.94,11111222 
DISL,ioos:station:DISL:MHPA:1,2019-07-06T07:00:00Z,30.6671,-87.9365,0.724,4.4,11111222 
DISL,ioos:station:DISL:MHPA:1,2019-07-06T08:00:00Z,30.6671,-87.9365,0.697,4.39,11111222 
DISL,ioos:station:DISL:MHPA:1,2019-07-06T09:00:00Z,30.6671,-87.9365,0.723,4.12,11111222 
DISL,ioos:station:DISL:MHPA:1,2019-07-06T10:00:00Z,30.6671,-87.9365,0.788,4.15,11111222 
DISL,ioos:station:DISL:MHPA:1,2019-07-06T11:00:00Z,30.6671,-87.9365,0.898,4.07,11111222 
DISL,ioos:station:DISL:MHPA:1,2019-07-06T12:00:00Z,30.6671,-87.9365,1.002,4.1,11111222 
DISL,ioos:station:DISL:MHPA:1,2019-07-06T13:00:00Z,30.6671,-87.9365,1.095,2.95,11111222 
DISL,ioos:station:DISL:MHPA:1,2019-07-06T14:00:00Z,30.6671,-87.9365,1.145,2.69,11111222 
DISL,ioos:station:DISL:MHPA:1,2019-07-06T15:00:00Z,30.6671,-87.9365,1.18,2.83,11111222 
DISL,ioos:station:DISL:MHPA:1,2019-07-06T16:00:00Z,30.6671,-87.9365,1.197,3.67,11111222 
DISL,ioos:station:DISL:MHPA:1,2019-07-06T17:00:00Z,30.6671,-87.9365,1.227,4.23,11111222 
DISL,ioos:station:DISL:MHPA:1,2019-07-06T18:00:00Z,30.6671,-87.9365,1.263,4.37,11111222 
DISL,ioos:station:DISL:MHPA:1,2019-07-06T19:00:00Z,30.6671,-87.9365,1.286,3.92,11111222 
DISL,ioos:station:DISL:MHPA:1,2019-07-06T20:00:00Z,30.6671,-87.9365,1.28,4.58,11111222 
DISL,ioos:station:DISL:MHPA:1,2019-07-06T21:00:00Z,30.6671,-87.9365,1.257,4.47,11111222 
DISL,ioos:station:DISL:MHPA:1,2019-07-06T22:00:00Z,30.6671,-87.9365,1.237,4.09,11111222 
DISL,ioos:station:DISL:MHPA:1,2019-07-06T23:00:00Z,30.6671,-87.9365,1.193,5.68,11111222 
DISL,ioos:station:DISL:MHPA:1,2019-07-07T00:00:00Z,30.6671,-87.9365,1.109,6.38,11111222 
DISL,ioos:station:DISL:MHPA:1,2019-07-07T01:00:00Z,30.6671,-87.9365,1.066,6.06,11111222 
DISL,ioos:station:DISL:MHPA:1,2019-07-07T02:00:00Z,30.6671,-87.9365,1.001,5.7,11111222 
DISL,ioos:station:DISL:MHPA:1,2019-07-07T03:00:00Z,30.6671,-87.9365,0.922,6.26,11111222 
DISL,ioos:station:DISL:MHPA:1,2019-07-07T04:00:00Z,30.6671,-87.9365,0.855,5.28,11111222 
DISL,ioos:station:DISL:MHPA:1,2019-07-07T05:00:00Z,30.6671,-87.9365,0.807,4.86,11111222 
DISL,ioos:station:DISL:MHPA:1,2019-07-07T06:00:00Z,30.6671,-87.9365,0.772,5.8,11111222 
DISL,ioos:station:DISL:MHPA:1,2019-07-07T07:00:00Z,30.6671,-87.9365,0.781,5.16,11111222 
DISL,ioos:station:DISL:MHPA:1,2019-07-07T08:00:00Z,30.6671,-87.9365,0.769,5.16,11111222 
DISL,ioos:station:DISL:MHPA:1,2019-07-07T09:00:00Z,30.6671,-87.9365,0.786,4.82,11111222 
DISL,ioos:station:DISL:MHPA:1,2019-07-07T10:00:00Z,30.6671,-87.9365,0.828,4.13,11111222 
DISL,ioos:station:DISL:MHPA:1,2019-07-07T11:00:00Z,30.6671,-87.9365,0.918,4.27,11111222 
DISL,ioos:station:DISL:MHPA:1,2019-07-07T12:00:00Z,30.6671,-87.9365,0.988,4.1,11111222 
DISL,ioos:station:DISL:MHPA:1,2019-07-07T13:00:00Z,30.6671,-87.9365,1.05,3.64,11111222 
DISL,ioos:station:DISL:MHPA:1,2019-07-07T14:00:00Z,30.6671,-87.9365,1.091,3.05,11111222 
DISL,ioos:station:DISL:MHPA:1,2019-07-07T15:00:00Z,30.6671,-87.9365,1.112,3.31,11111222 
DISL,ioos:station:DISL:MHPA:1,2019-07-07T15:30:00Z,30.6671,-87.9365,1.124,3.13,11111222 
DISL,ioos:station:DISL:MHPA:1,2019-07-07T16:30:00Z,30.6671,-87.9365,1.162,5.06,11111222 
DISL,ioos:station:DISL:MHPA:1,2019-07-07T18:00:00Z,30.6671,-87.9365,1.229,4.91,11111222 
DISL,ioos:station:DISL:MHPA:1,2019-07-07T19:00:00Z,30.6671,-87.9365,1.194,5.13,11111222 
DISL,ioos:station:DISL:MHPA:1,2019-07-07T19:30:00Z,30.6671,-87.9365,1.194,5.13,11111222 
DISL,ioos:station:DISL:MHPA:1,2019-07-07T21:00:00Z,30.6671,-87.9365,1.194,5.13,11111222 
DISL,ioos:station:DISL:MHPA:1,2019-07-07T22:00:00Z,30.6671,-87.9365,1.194,5.13,11111222 
DISL,ioos:station:DISL:MHPA:1,2019-07-07T23:00:00Z,30.6671,-87.9365,1.194,5.13,11111222 
DISL,ioos:station:DISL:MHPA:1,2019-07-08T00:00:00Z,30.6671,-87.9365,1.194,5.13,11111222 
DISL,ioos:station:DISL:MHPA:1,2019-07-08T01:00:00Z,30.6671,-87.9365,1.194,5.13,11111222 
DISL,ioos:station:DISL:MHPA:1,2019-07-08T02:00:00Z,30.6671,-87.9365,1.194,5.13,11111222 
DISL,ioos:station:DISL:MHPA:1,2019-07-08T03:00:00Z,30.6671,-87.9365,1.194,5.13,11111222 
DISL,ioos:station:DISL:MHPA:1,2019-07-08T04:00:00Z,30.6671,-87.9365,1.194,5.13,11111222 
DISL,ioos:station:DISL:MHPA:1,2019-07-08T05:00:00Z,30.6671,-87.9365,1.194,5.13,11111222 
DISL,ioos:station:DISL:MHPA:1,2019-07-08T06:00:00Z,30.6671,-87.9365,1.194,5.13,11111222 
DISL,ioos:station:DISL:MHPA:1,2019-07-08T07:00:00Z,30.6671,-87.9365,1.194,5.13,11111222 
DISL,ioos:station:DISL:MHPA:1,2019-07-08T08:00:00Z,30.6671,-87.9365,1.194,5.13,11111222 
DISL,ioos:station:DISL:MHPA:1,2019-07-08T09:00:00Z,30.6671,-87.9365,1.194,5.13,11111222 
DISL,ioos:station:DISL:MHPA:1,2019-07-08T10:00:00Z,30.6671,-87.9365,1.194,5.13,11111222 
DISL,ioos:station:DISL:MHPA:1,2019-07-08T11:00:00Z,30.6671,-87.9365,1.194,5.13,11111222 
DISL,ioos:station:DISL:MHPA:1,2019-07-08T12:00:00Z,30.6671,-87.9365,1.194,5.13,11111222 
DISL,ioos:station:DISL:MHPA:1,2019-07-08T13:00:00Z,30.6671,-87.9365,1.194,5.13,11111222 
DISL,ioos:station:DISL:MHPA:1,2019-07-08T14:00:00Z,30.6671,-87.9365,1.194,5.13,11111222 
DISL,ioos:station:DISL:MHPA:1,2019-07-08T15:00:00Z,30.6671,-87.9365,1.194,5.13,11111222 
DISL,ioos:station:DISL:MHPA:1,2019-07-08T16:00:00Z,30.6671,-87.9365,1.194,5.13,11111222 
DISL,ioos:station:DISL:MHPA:1,2019-07-08T17:00:00Z,30.6671,-87.9365,1.194,5.13,11111222 
DISL,ioos:station:DISL:MHPA:1,2019-07-08T18:00:00Z,30.6671,-87.9365,1.194,5.13,11111222 
DISL,ioos:station:DISL:MHPA:1,2019-07-08T19:00:00Z,30.6671,-87.9365,1.194,5.13,11111222 
DISL,ioos:station:DISL:MHPA:1,2019-07-08T20:00:00Z,30.6671,-87.9365,1.194,5.13,11111222 
DISL,ioos:station:DISL:MHPA:1,2019-07-08T21:00:00Z,30.6671,-87.9365,1.194,5.13,11111222 
DISL,ioos:station:DISL:MHPA:1,2019-07-08T22:00:00Z,30.6671,-87.9365,1.194,5.13,11111222 
DISL,ioos:station:DISL:MHPA:1,2019-07-08T23:00:00Z,30.6671,-87.9365,1.194,5.13,11111222 
DISL,ioos:station:DISL:MHPA:1,2019-07-09T00:00:00Z,30.6671,-87.9365,1.194,5.13,11111222 
DISL,ioos:station:DISL:MHPA:1,2019-07-09T01:00:00Z,30.6671,-87.9365,1.194,5.13,11111222 
DISL,ioos:station:DISL:MHPA:1,2019-07-09T02:00:00Z,30.6671,-87.9365,1.194,5.13,11111222 
DISL,ioos:station:DISL:MHPA:1,2019-07-09T03:00:00Z,30.6671,-87.9365,1.194,5.13,11111222 
DISL,ioos:station:DISL:MHPA:1,2019-07-09T04:00:00Z,30.6671,-87.9365,1.194,5.13,11111222 
DISL,ioos:station:DISL:MHPA:1,2019-07-09T05:00:00Z,30.6671,-87.9365,1.194,5.13,11111222 
DISL,ioos:station:DISL:MHPA:1,2019-07-09T06:00:00Z,30.6671,-87.9365,1.194,5.13,11111222 
DISL,ioos:station:DISL:MHPA:1,2019-07-09T07:00:00Z,30.6671,-87.9365,1.194,5.13,11111222 
DISL,ioos:station:DISL:MHPA:1,2019-07-09T08:00:00Z,30.6671,-87.9365,1.194,5.13,11111222 
DISL,ioos:station:DISL:MHPA:1,2019-07-09T09:00:00Z,30.6671,-87.9365,1.194,5.13,11111222 
DISL,ioos:station:DISL:MHPA:1,2019-07-09T10:00:00Z,30.6671,-87.9365,1.194,5.13,11111222 
DISL,ioos:station:DISL:MHPA:1,2019-07-09T11:00:00Z,30.6671,-87.9365,1.194,5.13,11111222 
DISL,ioos:station:DISL:MHPA:1,2019-07-09T12:00:00Z,30.6671,-87.9365,1.194,5.13,11111222 
DISL,ioos:station:DISL:MHPA:1,2019-07-09T13:00:00Z,30.6671,-87.9365,1.194,5.13,11111222 
DISL,ioos:station:DISL:MHPA:1,2019-07-09T14:00:00Z,30.6671,-87.9365,1.194,5.13,11111222 
DISL,ioos:station:DISL:MHPA:1,2019-07-09T15:00:00Z,30.6671,-87.9365,1.194,5.13,11111222 
DISL,ioos:station:DISL:MHPA:1,2019-07-09T16:00:00Z,30.6671,-87.9365,1.194,5.13,11111222 
DISL,ioos:station:DISL:MHPA:1,2019-07-09T17:00:00Z,30.6671,-87.9365,1.194,5.13,11111222 
DISL,ioos:station:DISL:MHPA:1,2019-07-09T18:00:00Z,30.6671,-87.9365,1.194,5.13,11111222 
DISL,ioos:station:DISL:MHPA:1,2019-07-09T19:00:00Z,30.6671,-87.9365,1.194,5.13,11111222 
DISL,ioos:station:DISL:MHPA:1,2019-07-09T20:00:00Z,30.6671,-87.9365,1.194,5.13,11111222 
DISL,ioos:station:DISL:MHPA:1,2019-07-09T21:00:00Z,30.6671,-87.9365,1.194,5.13,11111222 
DISL,ioos:station:DISL:MHPA:1,2019-07-09T22:00:00Z,30.6671,-87.9365,1.194,5.13,11111222 
DISL,ioos:station:DISL:MHPA:1,2019-07-09T22:30:00Z,30.6671,-87.9365,1.194,5.13,11111222 
DISL,ioos:station:DISL:MHPA:1,2019-07-10T00:00:00Z,30.6671,-87.9365,1.194,5.13,11111222 
DISL,ioos:station:DISL:MHPA:1,2019-07-10T01:00:00Z,30.6671,-87.9365,1.194,5.13,11111222 
DISL,ioos:station:DISL:MHPA:1,2019-07-10T02:00:00Z,30.6671,-87.9365,1.194,5.13,11111222 
DISL,ioos:station:DISL:MHPA:1,2019-07-10T03:00:00Z,30.6671,-87.9365,1.194,5.13,11111222 
DISL,ioos:station:DISL:MHPA:1,2019-07-10T04:00:00Z,30.6671,-87.9365,1.194,5.13,11111222 
DISL,ioos:station:DISL:MHPA:1,2019-07-10T05:00:00Z,30.6671,-87.9365,1.194,5.13,11111222 
DISL,ioos:station:DISL:MHPA:1,2019-07-10T06:00:00Z,30.6671,-87.9365,1.194,5.13,11111222 
DISL,ioos:station:DISL:MHPA:1,2019-07-10T07:00:00Z,30.6671,-87.9365,1.194,5.13,11111222 
DISL,ioos:station:DISL:MHPA:1,2019-07-10T08:00:00Z,30.6671,-87.9365,1.194,5.13,11111222 
DISL,ioos:station:DISL:MHPA:1,2019-07-10T09:00:00Z,30.6671,-87.9365,1.194,5.13,11111222 
DISL,ioos:station:DISL:MHPA:1,2019-07-10T10:00:00Z,30.6671,-87.9365,1.194,5.13,11111222 
DISL,ioos:station:DISL:MHPA:1,2019-07-10T11:00:00Z,30.6671,-87.9365,1.194,5.13,11111222 
DISL,ioos:station:DISL:MHPA:1,2019-07-10T12:00:00Z,30.6671,-87.9365,1.194,5.13,11111222 
DISL,ioos:station:DISL:MHPA:1,2019-07-10T13:00:00Z,30.6671,-87.9365,1.194,5.13,11111222 
DISL,ioos:station:DISL:MHPA:1,2019-07-10T14:00:00Z,30.6671,-87.9365,1.194,5.13,11111222 
DISL,ioos:station:DISL:MHPA:1,2019-07-10T15:00:00Z,30.6671,-87.9365,1.194,5.13,11111222 
DISL,ioos:station:DISL:MHPA:1,2019-07-10T16:00:00Z,30.6671,-87.9365,1.194,5.13,11111222 
DISL,ioos:station:DISL:MHPA:1,2019-07-10T17:00:00Z,30.6671,-87.9365,1.194,5.13,11111222 
DISL,ioos:station:DISL:MHPA:1,2019-07-10T18:00:00Z,30.6671,-87.9365,1.194,5.13,11111222 
DISL,ioos:station:DISL:MHPA:1,2019-07-10T19:00:00Z,30.6671,-87.9365,1.194,5.13,11111222 
DISL,ioos:station:DISL:MHPA:1,2019-07-10T20:00:00Z,30.6671,-87.9365,1.194,5.13,11111222 
DISL,ioos:station:DISL:MHPA:1,2019-07-10T21:00:00Z,30.6671,-87.9365,1.194,5.13,11111222 
DISL,ioos:station:DISL:MHPA:1,2019-07-10T22:00:00Z,30.6671,-87.9365,1.194,5.13,11111222 
DISL,ioos:station:DISL:MHPA:1,2019-07-10T23:00:00Z,30.6671,-87.9365,1.194,5.13,11111222 
DISL,ioos:station:DISL:MHPA:1,2019-07-11T00:00:00Z,30.6671,-87.9365,1.194,5.13,11111222 
DISL,ioos:station:DISL:MHPA:1,2019-07-11T01:00:00Z,30.6671,-87.9365,1.194,5.13,11111222 
DISL,ioos:station:DISL:MHPA:1,2019-07-11T02:00:00Z,30.6671,-87.9365,1.194,5.13,11111222 
DISL,ioos:station:DISL:MHPA:1,2019-07-11T03:00:00Z,30.6671,-87.9365,1.194,5.13,11111222 
DISL,ioos:station:DISL:MHPA:1,2019-07-11T04:00:00Z,30.6671,-87.9365,1.194,5.13,11111222 
DISL,ioos:station:DISL:MHPA:1,2019-07-11T05:00:00Z,30.6671,-87.9365,1.194,5.13,11111222 
DISL,ioos:station:DISL:MHPA:1,2019-07-11T06:00:00Z,30.6671,-87.9365,1.194,5.13,11111222 
DISL,ioos:station:DISL:MHPA:1,2019-07-11T07:00:00Z,30.6671,-87.9365,1.194,5.13,11111222 
DISL,ioos:station:DISL:MHPA:1,2019-07-11T08:00:00Z,30.6671,-87.9365,1.194,5.13,11111222 
DISL,ioos:station:DISL:MHPA:1,2019-07-11T09:00:00Z,30.6671,-87.9365,1.194,5.13,11111222 
DISL,ioos:station:DISL:MHPA:1,2019-07-11T10:00:00Z,30.6671,-87.9365,1.194,5.13,11111222 
DISL,ioos:station:DISL:MHPA:1,2019-07-11T11:00:00Z,30.6671,-87.9365,1.194,5.13,11111222 
DISL,ioos:station:DISL:MHPA:1,2019-07-11T12:00:00Z,30.6671,-87.9365,1.194,5.13,11111222 
DISL,ioos:station:DISL:MHPA:1,2019-07-11T13:00:00Z,30.6671,-87.9365,1.194,5.13,11111222 
DISL,ioos:station:DISL:MHPA:1,2019-07-11T14:00:00Z,30.6671,-87.9365,1.194,5.13,11111222 
DISL,ioos:station:DISL:MHPA:1,2019-07-11T15:00:00Z,30.6671,-87.9365,1.194,5.13,11111222 
DISL,ioos:station:DISL:MHPA:1,2019-07-11T16:00:00Z,30.6671,-87.9365,1.194,5.13,11111222 
DISL,ioos:station:DISL:MHPA:1,2019-07-11T17:00:00Z,30.6671,-87.9365,1.194,5.13,11111222 
DISL,ioos:station:DISL:MHPA:1,2019-07-11T18:00:00Z,30.6671,-87.9365,1.194,5.13,11111222 
DISL,ioos:station:DISL:MHPA:1,2019-07-11T19:00:00Z,30.6671,-87.9365,1.194,5.13,11111222 
DISL,ioos:station:DISL:MHPA:1,2019-07-11T20:00:00Z,30.6671,-87.9365,1.194,5.13,11111222 
DISL,ioos:station:DISL:MHPA:1,2019-07-11T21:00:00Z,30.6671,-87.9365,1.194,5.13,11111222 
DISL,ioos:station:DISL:MHPA:1,2019-07-11T22:00:00Z,30.6671,-87.9365,1.194,5.13,11111222 
DISL,ioos:station:DISL:MHPA:1,2019-07-11T23:00:00Z,30.6671,-87.9365,1.194,5.13,11111222 
DISL,ioos:station:DISL:MHPA:1,2019-07-12T00:00:00Z,30.6671,-87.9365,1.194,5.13,11111222 
DISL,ioos:station:DISL:MHPA:1,2019-07-12T01:00:00Z,30.6671,-87.9365,1.194,5.13,11111222 
DISL,ioos:station:DISL:MHPA:1,2019-07-12T02:00:00Z,30.6671,-87.9365,1.194,5.13,11111222 
DISL,ioos:station:DISL:MHPA:1,2019-07-12T03:00:00Z,30.6671,-87.9365,1.194,5.13,11111222 
DISL,ioos:station:DISL:MHPA:1,2019-07-12T04:00:00Z,30.6671,-87.9365,1.194,5.13,11111222 
DISL,ioos:station:DISL:MHPA:1,2019-07-12T05:00:00Z,30.6671,-87.9365,1.194,5.13,11111222 
DISL,ioos:station:DISL:MHPA:1,2019-07-12T06:00:00Z,30.6671,-87.9365,1.194,5.13,11111222 
DISL,ioos:station:DISL:MHPA:1,2019-07-12T07:00:00Z,30.6671,-87.9365,1.194,5.13,11111222 
DISL,ioos:station:DISL:MHPA:1,2019-07-12T08:00:00Z,30.6671,-87.9365,1.194,5.13,11111222 